TimeEST,TemperatureF,Dew PointF,Humidity,Sea Level PressureIn,VisibilityMPH,Wind Direction,Wind SpeedMPH,Gust SpeedMPH,PrecipitationIn,Events,Conditions,WindDirDegrees,DateUTC
12:53 AM,37.9,28.0,68,30.35,10.0,East,9.2,-,N/A,,Clear,90,2013-01-08 05:53:00
1:53 AM,37.0,28.0,70,30.36,10.0,East,5.8,-,N/A,,Clear,90,2013-01-08 06:53:00
2:53 AM,37.0,28.0,70,30.35,10.0,ENE,5.8,-,N/A,,Clear,70,2013-01-08 07:53:00
3:53 AM,37.0,28.9,73,30.34,10.0,ENE,6.9,-,N/A,,Mostly Cloudy,70,2013-01-08 08:53:00
4:53 AM,36.0,28.9,76,30.34,10.0,ENE,4.6,-,N/A,,Overcast,60,2013-01-08 09:53:00
5:53 AM,37.9,28.9,70,30.34,10.0,ENE,6.9,-,N/A,,Mostly Cloudy,60,2013-01-08 10:53:00
6:53 AM,37.9,28.9,70,30.35,10.0,ENE,6.9,-,N/A,,Mostly Cloudy,70,2013-01-08 11:53:00
7:09 AM,37.4,28.4,70,30.35,10.0,ENE,6.9,-,N/A,,Overcast,70,2013-01-08 12:09:00
7:53 AM,39.0,28.9,67,30.38,10.0,ENE,9.2,-,N/A,,Overcast,70,2013-01-08 12:53:00
8:53 AM,41.0,30.0,65,30.40,10.0,East,9.2,-,N/A,,Overcast,80,2013-01-08 13:53:00
9:53 AM,43.0,30.9,62,30.43,10.0,East,9.2,-,N/A,,Overcast,80,2013-01-08 14:53:00
10:53 AM,44.1,30.9,60,30.44,10.0,East,9.2,-,N/A,,Overcast,100,2013-01-08 15:53:00
11:53 AM,46.0,30.9,56,30.42,10.0,East,8.1,-,N/A,,Overcast,90,2013-01-08 16:53:00
12:53 PM,46.9,30.9,54,30.38,10.0,NE,10.4,-,N/A,,Overcast,50,2013-01-08 17:53:00
1:53 PM,48.0,33.1,56,30.36,10.0,ENE,8.1,-,N/A,,Overcast,70,2013-01-08 18:53:00
2:53 PM,48.9,35.1,59,30.36,10.0,ENE,3.5,-,N/A,,Overcast,60,2013-01-08 19:53:00
3:53 PM,48.9,36.0,61,30.34,10.0,East,9.2,-,N/A,,Overcast,80,2013-01-08 20:53:00
4:53 PM,48.9,37.0,64,30.35,10.0,East,8.1,19.6,N/A,,Overcast,80,2013-01-08 21:53:00
5:53 PM,48.9,37.0,64,30.35,10.0,East,6.9,-,N/A,,Overcast,90,2013-01-08 22:53:00
6:53 PM,48.0,36.0,63,30.36,10.0,East,8.1,-,N/A,,Overcast,90,2013-01-08 23:53:00
7:53 PM,48.0,36.0,63,30.37,10.0,East,4.6,-,N/A,,Overcast,90,2013-01-09 00:53:00
8:53 PM,48.0,36.0,63,30.37,10.0,ESE,6.9,-,N/A,,Overcast,110,2013-01-09 01:53:00
9:53 PM,48.0,36.0,63,30.38,10.0,ENE,5.8,-,N/A,,Overcast,70,2013-01-09 02:53:00
10:31 PM,48.2,35.6,62,30.38,10.0,East,5.8,-,N/A,,Overcast,90,2013-01-09 03:31:00
10:53 PM,48.0,36.0,63,30.37,10.0,East,6.9,-,N/A,,Overcast,80,2013-01-09 03:53:00
11:40 PM,48.2,35.6,62,30.37,10.0,ENE,8.1,-,N/A,,Overcast,70,2013-01-09 04:40:00
11:53 PM,48.0,36.0,63,30.37,10.0,ENE,6.9,-,N/A,,Overcast,70,2013-01-09 04:53:00